ONEWEB-0122 (47268 NORAD) Tracking and Keplerian Element Data

This shows tracking and keplerian element data for the satellite.

Feedback or suggestion? Click here.




ElementValue
Catalog47268
NameONEWEB-0122
Epoch Orbit1068
Epoch Day60.16668981
Epoch Year2021
RAAN16.0713
Inclination87.5198
Eccentricity0.0010468
Argument of Perigee35.7592
Mean Anonmoly109.6824
Mean Motion13.90294749
Decay Rate-0.00926267
L11 47268U 20100L 21060.16668981 -.00926267 00000-0 -78859+0 0 9994
L22 47268 87.5198 16.0713 0010468 35.7592 109.6824 13.90294749 10688

Live tracking and technical data element details for ONEWEB-0122 (NORAD 47268). ONEWEB-0122 can be tracked NOW for your location showing map with azimuth and elevation plus other details from your city location.

Track the satellite on the map from your city or location and see movement details for azimuth, elevation, latitude, longitude, range, height, and movement on the map or in text.







IsCatalogInMostPopularTable: catalog: 47268, numindb: 20
Update: records affected: 1



GetName: 47268 ONEWEB-0122

Hit Count: updated at: Mon, 01 Mar 2021 21:31:23 GMT